Voltar ao catálogo

STARLINK-4725

AtivoComunicaçõesVLEO
NORAD 53700·PAYLOAD·🇺🇸 United States

Lançado Sep 5, 2022 de Cape Canaveral Space Force Station

Loading…

Próximas Passagens (próximas 24 horas)

TLE

AtualizadoSource: CelesTrak SupGP

Época: Sep 15, 2026, 03:00 UTC

1 53700C 22107A   26258.12548611  .00661270  00000+0  20201-1 0  2583
2 53700  53.1606 110.8603 0001179  80.9996 292.0492 15.33006826    19

Acompanhe STARLINK-4725 em tempo real com AllMySat

Download on the App Store